AAL3324 KLAS-KDCA

Flight info

Callsign AAL3324
Flight time 3h 50m
Altitude 33000
Route GIDGT3 TUKRR DICEE DANDD/N0449F350 MCK KAWWA Q136 BVEEE JALAP GUZIK MAROC BVT ROD APE J30 LUISE FRDMM6
Aircraft A321/M-SDE3FGHIRWY/LB1

Departure

Time 2026-05-07 20:26
Airport Harry Reid International Airport (KLAS)

Arrival

Time 2026-05-08 00:16
Airport Ronald Reagan Washington National Airport (KDCA)
Time Latitude Longitude Altitude Speed Heading
2026-05-07 20:09 36.07986 -115.13527 2091 ft 0 kts
2026-05-07 20:18 36.07967 -115.13527 2089 ft 4 kts 355°
2026-05-07 20:18 36.07941 -115.13522 2087 ft 4 kts 342°
2026-05-07 20:19 36.07918 -115.13508 2086 ft 4 kts 311°
2026-05-07 20:19 36.07910 -115.13490 2086 ft 0 kts 270°
2026-05-07 20:19 36.07910 -115.13491 2086 ft 0 kts 270°
2026-05-07 20:22 36.07902 -115.13513 2086 ft 5 kts 234°
2026-05-07 20:22 36.07847 -115.13518 2086 ft 11 kts 159°
2026-05-07 20:22 36.07827 -115.13426 2083 ft 13 kts 89°
2026-05-07 20:22 36.07827 -115.13296 2075 ft 18 kts 90°
2026-05-07 20:23 36.07825 -115.13127 2068 ft 18 kts 102°
2026-05-07 20:23 36.07827 -115.12977 2064 ft 18 kts 90°
2026-05-07 20:23 36.07827 -115.12803 2056 ft 22 kts 90°
2026-05-07 20:23 36.07826 -115.12595 2053 ft 26 kts 90°
2026-05-07 20:24 36.07827 -115.12374 2050 ft 26 kts 90°
2026-05-07 20:24 36.07787 -115.12201 2040 ft 20 kts 128°
2026-05-07 20:24 36.07685 -115.12116 2043 ft 15 kts 177°
2026-05-07 20:24 36.07641 -115.12136 2042 ft 4 kts 265°
2026-05-07 20:25 36.07640 -115.12200 2047 ft 25 kts 269°
2026-05-07 20:25 36.07640 -115.12728 2058 ft 95 kts 270°
2026-05-07 20:25 36.07640 -115.13793 2090 ft 150 kts 270°
2026-05-07 20:25 36.07641 -115.15278 2150 ft 193 kts 269°
2026-05-07 20:26 36.07650 -115.16941 2816 ft 192 kts 270°
2026-05-07 20:26 36.07651 -115.18600 3518 ft 194 kts 270°
2026-05-07 20:26 36.07643 -115.20284 4071 ft 198 kts 270°
2026-05-07 20:26 36.07641 -115.22056 4205 ft 215 kts 271°
2026-05-07 20:27 36.07640 -115.23957 4427 ft 226 kts 270°
2026-05-07 20:27 36.07662 -115.25924 4728 ft 231 kts 278°
2026-05-07 20:27 36.08316 -115.27714 5088 ft 232 kts 314°
2026-05-07 20:27 36.09696 -115.28784 5256 ft 245 kts 346°
2026-05-07 20:28 36.11407 -115.29271 5577 ft 255 kts 348°
2026-05-07 20:28 36.13154 -115.29594 6204 ft 254 kts
2026-05-07 20:28 36.14873 -115.29117 6799 ft 257 kts 24°
2026-05-07 20:28 36.16352 -115.27804 7126 ft 273 kts 48°
2026-05-07 20:29 36.17354 -115.25738 7439 ft 287 kts 66°
2026-05-07 20:29 36.18042 -115.23420 8039 ft 287 kts 68°
2026-05-07 20:29 36.18757 -115.21093 8597 ft 291 kts 66°
2026-05-07 20:29 36.19407 -115.18713 9185 ft 295 kts 76°
2026-05-07 20:30 36.19615 -115.16178 9758 ft 299 kts 89°
2026-05-07 20:30 36.19592 -115.13590 10278 ft 303 kts 88°
2026-05-07 20:30 36.19590 -115.10914 10489 ft 319 kts 88°
2026-05-07 20:30 36.19601 -115.08100 10610 ft 336 kts 88°
2026-05-07 20:31 36.19609 -115.05142 10833 ft 350 kts 88°
2026-05-07 20:31 36.19624 -115.02076 11082 ft 363 kts 88°
2026-05-07 20:31 36.19634 -114.98924 11530 ft 368 kts 88°
2026-05-07 20:31 36.19634 -114.95788 12092 ft 370 kts 88°
2026-05-07 20:32 36.19629 -114.92592 12641 ft 373 kts 88°
2026-05-07 20:32 36.19624 -114.89373 13192 ft 375 kts 88°
2026-05-07 20:32 36.19620 -114.86137 13741 ft 377 kts 88°
2026-05-07 20:32 36.19614 -114.82889 14265 ft 378 kts 88°
2026-05-07 20:33 36.19607 -114.79624 14753 ft 380 kts 88°
2026-05-07 20:33 36.19599 -114.76340 15254 ft 383 kts 88°
2026-05-07 20:33 36.19587 -114.73034 15746 ft 385 kts 88°
2026-05-07 20:33 36.19575 -114.69707 16234 ft 388 kts 88°
2026-05-07 20:34 36.19567 -114.66364 16726 ft 390 kts 88°
2026-05-07 20:34 36.19562 -114.62992 17240 ft 393 kts 88°
2026-05-07 20:34 36.19557 -114.59602 17710 ft 395 kts 88°
2026-05-07 20:34 36.19551 -114.56191 18188 ft 398 kts 88°
2026-05-07 20:35 36.19543 -114.52756 18593 ft 400 kts 88°
2026-05-07 20:35 36.19533 -114.49302 19015 ft 403 kts 88°
2026-05-07 20:35 36.19521 -114.45826 19440 ft 405 kts 88°
2026-05-07 20:35 36.19508 -114.42331 19862 ft 407 kts 88°
2026-05-07 20:36 36.19497 -114.38817 20283 ft 410 kts 88°
2026-05-07 20:36 36.19485 -114.35280 20690 ft 412 kts 88°
2026-05-07 20:36 36.19471 -114.31720 21099 ft 414 kts 88°
2026-05-07 20:36 36.19443 -114.28149 21531 ft 416 kts 88°
2026-05-07 20:37 36.19422 -114.24568 21935 ft 417 kts 85°
2026-05-07 20:37 36.19706 -114.20993 22225 ft 419 kts 79°
2026-05-07 20:37 36.20125 -114.17420 22598 ft 420 kts 78°
2026-05-07 20:37 36.20574 -114.13841 22992 ft 422 kts 78°
2026-05-07 20:38 36.21036 -114.10245 23322 ft 424 kts 78°
2026-05-07 20:38 36.21498 -114.06622 23657 ft 427 kts 78°
2026-05-07 20:38 36.21951 -114.02982 23944 ft 429 kts 78°
2026-05-07 20:38 36.22395 -113.99323 24260 ft 431 kts 78°
2026-05-07 20:39 36.22831 -113.95646 24566 ft 432 kts 79°
2026-05-07 20:39 36.23261 -113.91952 24863 ft 434 kts 79°
2026-05-07 20:39 36.23692 -113.88247 25167 ft 435 kts 79°
2026-05-07 20:39 36.24123 -113.84534 25476 ft 437 kts 79°
2026-05-07 20:40 36.24555 -113.80805 25771 ft 438 kts 79°
2026-05-07 20:40 36.24989 -113.77060 26057 ft 440 kts 78°
2026-05-07 20:40 36.25422 -113.73357 26356 ft 441 kts 78°
2026-05-07 20:40 36.25862 -113.69586 26627 ft 443 kts 78°
2026-05-07 20:41 36.26300 -113.65803 26895 ft 445 kts 78°
2026-05-07 20:41 36.26738 -113.62006 27180 ft 446 kts 78°
2026-05-07 20:41 36.27188 -113.58202 27443 ft 446 kts 75°
2026-05-07 20:41 36.27698 -113.54408 27718 ft 446 kts 73°
2026-05-07 20:42 36.28274 -113.50633 27996 ft 446 kts 72°
2026-05-07 20:42 36.28840 -113.46855 28248 ft 447 kts 75°
2026-05-07 20:42 36.29249 -113.43018 28462 ft 450 kts 77°
2026-05-07 20:42 36.29583 -113.39154 28715 ft 451 kts 77°
2026-05-07 20:43 36.29950 -113.35294 29003 ft 451 kts 77°
2026-05-07 20:43 36.30304 -113.31431 29310 ft 451 kts 78°
2026-05-07 20:43 36.30609 -113.27562 29660 ft 450 kts 77°
2026-05-07 20:43 36.31070 -113.23742 29998 ft 445 kts 70°
2026-05-07 20:44 36.32009 -113.20125 30350 ft 438 kts 61°
2026-05-07 20:44 36.33302 -113.16714 30540 ft 438 kts 58°
2026-05-07 20:44 36.34614 -113.13296 30678 ft 440 kts 59°
2026-05-07 20:44 36.35908 -113.09845 30842 ft 442 kts 59°
2026-05-07 20:45 36.37178 -113.06370 31040 ft 443 kts 60°
2026-05-07 20:45 36.38424 -113.02879 31247 ft 442 kts 60°
2026-05-07 20:45 36.39691 -112.99408 31467 ft 441 kts 59°
2026-05-07 20:45 36.40960 -112.95940 31726 ft 441 kts 60°
2026-05-07 20:46 36.42198 -112.92464 31996 ft 439 kts 60°
2026-05-07 20:46 36.43406 -112.88987 32282 ft 438 kts 61°
2026-05-07 20:46 36.44585 -112.85511 32578 ft 436 kts 61°
2026-05-07 20:46 36.45757 -112.82043 32841 ft 435 kts 61°
2026-05-07 20:47 36.46944 -112.78585 33011 ft 436 kts 60°
2026-05-07 20:47 36.49356 -112.71683 33020 ft 435 kts 60°
2026-05-07 20:48 36.51730 -112.64760 33032 ft 435 kts 64°
2026-05-07 20:48 36.54042 -112.57806 33038 ft 435 kts 64°
2026-05-07 20:49 36.56398 -112.50876 33038 ft 435 kts 64°
2026-05-07 20:49 36.58783 -112.43961 33051 ft 435 kts 64°
2026-05-07 20:50 36.61156 -112.37083 33048 ft 436 kts 64°
2026-05-07 20:50 36.63532 -112.30132 33052 ft 437 kts 64°
2026-05-07 20:51 36.65914 -112.23119 33054 ft 437 kts 64°
2026-05-07 20:51 36.68272 -112.16191 33058 ft 438 kts 64°
2026-05-07 20:52 36.70635 -112.09202 33062 ft 438 kts 64°
2026-05-07 20:52 36.73004 -112.02200 33051 ft 439 kts 64°
2026-05-07 20:53 36.75372 -111.95186 33050 ft 439 kts 64°
2026-05-07 20:53 36.77734 -111.88167 33038 ft 439 kts 64°
2026-05-07 20:54 36.80090 -111.81150 33036 ft 438 kts 64°
2026-05-07 20:54 36.82450 -111.74128 33030 ft 439 kts 64°
2026-05-07 20:55 36.84985 -111.67215 33027 ft 436 kts 56°
2026-05-07 20:55 36.88826 -111.61460 33010 ft 431 kts 40°
2026-05-07 20:56 36.93213 -111.56335 33002 ft 432 kts 41°
2026-05-07 20:56 36.95403 -111.53756 33144 ft 433 kts 41°
2026-05-07 20:56 36.97595 -111.51173 33148 ft 433 kts 41°
2026-05-07 20:57 37.01983 -111.45999 33150 ft 434 kts 41°
2026-05-07 20:57 37.06345 -111.40860 33129 ft 434 kts 41°
2026-05-07 20:58 37.10734 -111.35673 33104 ft 434 kts 41°
2026-05-07 20:58 37.15124 -111.30475 33077 ft 434 kts 41°
2026-05-07 20:59 37.19508 -111.25259 33042 ft 435 kts 43°
2026-05-07 20:59 37.23039 -111.19070 33016 ft 441 kts 62°
2026-05-07 21:00 37.25453 -111.11958 33021 ft 443 kts 64°
2026-05-07 21:00 37.27866 -111.04827 33021 ft 444 kts 64°
2026-05-07 21:01 37.30291 -110.97687 33025 ft 445 kts 64°
2026-05-07 21:01 37.32702 -110.90531 33020 ft 445 kts 64°
2026-05-07 21:02 37.35103 -110.83367 33023 ft 445 kts 64°
2026-05-07 21:02 37.37503 -110.76198 33030 ft 445 kts 64°
2026-05-07 21:03 37.39900 -110.69028 33024 ft 445 kts 64°
2026-05-07 21:03 37.42284 -110.61845 33022 ft 445 kts 64°
2026-05-07 21:04 37.44670 -110.54660 33027 ft 445 kts 64°
2026-05-07 21:04 37.47042 -110.47518 33029 ft 445 kts 64°
2026-05-07 21:05 37.49422 -110.40319 33039 ft 445 kts 64°
2026-05-07 21:05 37.51797 -110.33109 33049 ft 446 kts 64°
2026-05-07 21:06 37.54166 -110.25888 33047 ft 446 kts 64°
2026-05-07 21:06 37.56536 -110.18667 33060 ft 446 kts 64°
2026-05-07 21:07 37.58898 -110.11440 33066 ft 446 kts 64°
2026-05-07 21:07 37.61258 -110.04196 33069 ft 447 kts 64°
2026-05-07 21:08 37.63628 -109.96939 33052 ft 448 kts 64°
2026-05-07 21:08 37.65996 -109.89660 33065 ft 449 kts 64°
2026-05-07 21:09 37.67962 -109.83596 33060 ft 449 kts 64°
2026-05-07 21:09 37.70325 -109.76290 33088 ft 450 kts 64°
2026-05-07 21:10 37.72680 -109.68967 33076 ft 450 kts 64°
2026-05-07 21:10 37.75031 -109.61635 33151 ft 450 kts 64°
2026-05-07 21:11 37.77392 -109.54297 33151 ft 451 kts 64°
2026-05-07 21:11 37.80928 -109.43283 33149 ft 451 kts 64°
2026-05-07 21:12 37.83266 -109.35912 33127 ft 452 kts 64°
2026-05-07 21:12 37.85607 -109.28532 33107 ft 452 kts 64°
2026-05-07 21:13 37.87957 -109.21147 33081 ft 452 kts 64°
2026-05-07 21:13 37.90281 -109.13797 33087 ft 453 kts 64°
2026-05-07 21:14 37.92612 -109.06386 33090 ft 453 kts 64°
2026-05-07 21:14 37.94945 -108.98965 33083 ft 454 kts 64°
2026-05-07 21:15 37.97286 -108.91538 33082 ft 454 kts 64°
2026-05-07 21:15 37.99622 -108.84099 33079 ft 454 kts 64°
2026-05-07 21:16 38.01944 -108.76649 33095 ft 454 kts 64°
2026-05-07 21:16 38.04262 -108.69191 33093 ft 455 kts 64°
2026-05-07 21:17 38.06578 -108.61712 33089 ft 455 kts 64°
2026-05-07 21:17 38.08894 -108.54229 33112 ft 456 kts 64°
2026-05-07 21:18 38.11215 -108.46734 33099 ft 456 kts 64°
2026-05-07 21:18 38.13526 -108.39224 33117 ft 457 kts 64°
2026-05-07 21:19 38.15835 -108.31698 33111 ft 457 kts 64°
2026-05-07 21:19 38.18147 -108.24163 33108 ft 458 kts 64°
2026-05-07 21:20 38.20453 -108.16615 33105 ft 458 kts 64°
2026-05-07 21:20 38.22753 -108.09055 33120 ft 458 kts 64°
2026-05-07 21:21 38.25051 -108.01495 33138 ft 458 kts 64°
2026-05-07 21:21 38.27348 -107.93930 33149 ft 458 kts 64°
2026-05-07 21:22 38.29634 -107.86359 33150 ft 458 kts 64°
2026-05-07 21:22 38.31910 -107.78776 33103 ft 458 kts 64°
2026-05-07 21:23 38.34173 -107.71251 33134 ft 458 kts 64°
2026-05-07 21:23 38.36449 -107.63664 33123 ft 459 kts 64°
2026-05-07 21:24 38.38720 -107.56069 33135 ft 459 kts 64°
2026-05-07 21:24 38.40986 -107.48460 33131 ft 459 kts 64°
2026-05-07 21:25 38.43251 -107.40840 33143 ft 460 kts 64°
2026-05-07 21:25 38.45511 -107.33211 33161 ft 460 kts 64°
2026-05-07 21:26 38.47776 -107.25563 33169 ft 461 kts 64°
2026-05-07 21:26 38.50030 -107.17916 33180 ft 461 kts 64°
2026-05-07 21:27 38.52275 -107.10253 33191 ft 461 kts 64°
2026-05-07 21:27 38.54522 -107.02579 33223 ft 461 kts 64°
2026-05-07 21:28 38.56770 -106.94897 33215 ft 462 kts 64°
2026-05-07 21:28 38.59016 -106.87197 33133 ft 463 kts 64°
2026-05-07 21:29 38.61258 -106.79479 33125 ft 463 kts 64°
2026-05-07 21:29 38.63498 -106.71752 33132 ft 464 kts 64°
2026-05-07 21:30 38.65719 -106.64056 33143 ft 465 kts 64°
2026-05-07 21:30 38.67948 -106.56295 33141 ft 465 kts 64°
2026-05-07 21:31 38.70185 -106.48531 33143 ft 465 kts 64°
2026-05-07 21:31 38.72418 -106.40758 33159 ft 465 kts 65°
2026-05-07 21:32 38.74632 -106.32966 33193 ft 466 kts 65°
2026-05-07 21:32 38.76849 -106.25154 33199 ft 467 kts 65°
2026-05-07 21:33 38.79074 -106.17327 33195 ft 468 kts 65°
2026-05-07 21:33 38.81296 -106.09487 33196 ft 468 kts 65°
2026-05-07 21:34 38.83513 -106.01633 33200 ft 469 kts 65°
2026-05-07 21:34 38.85722 -105.93765 33178 ft 469 kts 65°
2026-05-07 21:35 38.86828 -105.89826 33037 ft 469 kts 65°
2026-05-07 21:35 38.87937 -105.85883 33035 ft 470 kts 64°
2026-05-07 21:35 38.90151 -105.77991 33016 ft 470 kts 65°
2026-05-07 21:36 38.92354 -105.70084 33013 ft 471 kts 65°
2026-05-07 21:36 38.94550 -105.62161 33027 ft 471 kts 65°
2026-05-07 21:37 38.96748 -105.54221 32998 ft 472 kts 65°
2026-05-07 21:37 38.98945 -105.46257 32993 ft 473 kts 65°
2026-05-07 21:38 39.01138 -105.38278 33029 ft 474 kts 65°
2026-05-07 21:38 39.03341 -105.30274 33017 ft 475 kts 65°
2026-05-07 21:39 39.05521 -105.22302 33021 ft 476 kts 65°
2026-05-07 21:39 39.07731 -105.14196 33005 ft 486 kts 65°
2026-05-07 21:40 39.09984 -105.05910 33000 ft 493 kts 65°
2026-05-07 21:40 39.12241 -104.97561 33047 ft 494 kts 65°
2026-05-07 21:41 39.14499 -104.89210 33045 ft 494 kts 65°
2026-05-07 21:41 39.16750 -104.80851 33043 ft 494 kts 65°
2026-05-07 21:42 39.18992 -104.72476 33030 ft 494 kts 65°
2026-05-07 21:42 39.21230 -104.64100 33027 ft 494 kts 65°
2026-05-07 21:43 39.23469 -104.55726 33022 ft 494 kts 65°
2026-05-07 21:43 39.25703 -104.47342 33003 ft 494 kts 65°
2026-05-07 21:44 39.27921 -104.38946 32987 ft 494 kts 65°
2026-05-07 21:44 39.30137 -104.30541 32985 ft 494 kts 65°
2026-05-07 21:45 39.32345 -104.22132 32985 ft 495 kts 65°
2026-05-07 21:45 39.34548 -104.13709 32981 ft 495 kts 65°
2026-05-07 21:46 39.36749 -104.05277 32977 ft 495 kts 65°
2026-05-07 21:46 39.38949 -103.96831 32964 ft 496 kts 65°
2026-05-07 21:47 39.41144 -103.88381 32954 ft 496 kts 65°
2026-05-07 21:47 39.43334 -103.79913 32940 ft 496 kts 65°
2026-05-07 21:48 39.45502 -103.71450 32920 ft 496 kts 65°
2026-05-07 21:48 39.47669 -103.62972 32928 ft 496 kts 65°
2026-05-07 21:49 39.49824 -103.54480 32943 ft 497 kts 65°
2026-05-07 21:49 39.51975 -103.45972 32958 ft 498 kts 65°
2026-05-07 21:50 39.54136 -103.37445 32951 ft 499 kts 65°
2026-05-07 21:50 39.55214 -103.33182 33262 ft 495 kts 65°
2026-05-07 21:50 39.56272 -103.28967 33786 ft 489 kts 65°
2026-05-07 21:51 39.57320 -103.24787 34131 ft 487 kts 65°
2026-05-07 21:51 39.58364 -103.20622 34379 ft 486 kts 65°
2026-05-07 21:51 39.59407 -103.16459 34598 ft 486 kts 66°
2026-05-07 21:51 39.60453 -103.12293 34826 ft 486 kts 66°
2026-05-07 21:52 39.61500 -103.08120 34931 ft 488 kts 66°
2026-05-07 21:52 39.62552 -103.03919 34933 ft 492 kts 66°
2026-05-07 21:52 39.64682 -102.95398 34931 ft 499 kts 66°
2026-05-07 21:53 39.66808 -102.86804 34932 ft 500 kts 66°
2026-05-07 21:53 39.68911 -102.78255 34933 ft 500 kts 66°
2026-05-07 21:54 39.71031 -102.69645 34924 ft 501 kts 67°
2026-05-07 21:54 39.73142 -102.61019 34926 ft 502 kts 67°
2026-05-07 21:55 39.75253 -102.52372 34933 ft 502 kts 67°
2026-05-07 21:55 39.77359 -102.43713 34938 ft 503 kts 67°
2026-05-07 21:56 39.79461 -102.35036 34961 ft 503 kts 68°
2026-05-07 21:56 39.81560 -102.26346 34944 ft 504 kts 68°
2026-05-07 21:57 39.83656 -102.17641 34949 ft 504 kts 67°
2026-05-07 21:57 39.85738 -102.08957 34938 ft 502 kts 67°
2026-05-07 21:58 39.87460 -102.01742 34971 ft 503 kts 68°
2026-05-07 21:58 39.89532 -101.93040 34963 ft 504 kts 68°
2026-05-07 21:59 39.91605 -101.84318 34961 ft 504 kts 68°
2026-05-07 21:59 39.93676 -101.75579 34962 ft 505 kts 68°
2026-05-07 22:00 39.95730 -101.66827 34965 ft 506 kts 69°
2026-05-07 22:00 39.97787 -101.58055 34939 ft 506 kts 69°
2026-05-07 22:01 39.99841 -101.49264 34936 ft 507 kts 69°
2026-05-07 22:01 40.01882 -101.40465 34923 ft 507 kts 69°
2026-05-07 22:02 40.03927 -101.31660 34918 ft 507 kts 69°
2026-05-07 22:02 40.05972 -101.22837 34949 ft 509 kts 70°
2026-05-07 22:03 40.08012 -101.13988 34914 ft 509 kts 70°
2026-05-07 22:03 40.10039 -101.05118 34909 ft 510 kts 70°
2026-05-07 22:04 40.12064 -100.96238 34911 ft 510 kts 70°
2026-05-07 22:04 40.14085 -100.87343 34916 ft 511 kts 70°
2026-05-07 22:05 40.16103 -100.78443 34922 ft 511 kts 70°
2026-05-07 22:05 40.18113 -100.69538 34927 ft 511 kts 70°
2026-05-07 22:06 40.20106 -100.60627 34925 ft 511 kts 70°
2026-05-07 22:06 40.21867 -100.51599 34940 ft 514 kts 75°
2026-05-07 22:07 40.23293 -100.42419 34924 ft 516 kts 76°
2026-05-07 22:07 40.24671 -100.33208 34913 ft 516 kts 76°
2026-05-07 22:08 40.26138 -100.24011 34904 ft 516 kts 75°
2026-05-07 22:08 40.27655 -100.14824 34922 ft 517 kts 75°
2026-05-07 22:09 40.29157 -100.05620 34916 ft 517 kts 76°
2026-05-07 22:09 40.30625 -99.96409 34912 ft 517 kts 76°
2026-05-07 22:10 40.32086 -99.87189 34902 ft 517 kts 76°
2026-05-07 22:10 40.33543 -99.77973 34905 ft 517 kts 76°
2026-05-07 22:11 40.35003 -99.68734 34896 ft 518 kts 76°
2026-05-07 22:11 40.36440 -99.59555 34894 ft 518 kts 76°
2026-05-07 22:12 40.37879 -99.50295 34901 ft 518 kts 76°
2026-05-07 22:12 40.39314 -99.41030 34910 ft 519 kts 76°
2026-05-07 22:13 40.40738 -99.31741 34907 ft 520 kts 77°
2026-05-07 22:13 40.42157 -99.22427 34907 ft 521 kts 77°
2026-05-07 22:14 40.43558 -99.13088 34906 ft 522 kts 78°
2026-05-07 22:14 40.44760 -99.03678 34914 ft 523 kts 79°
2026-05-07 22:15 40.45858 -98.94227 34907 ft 524 kts 79°
2026-05-07 22:15 40.46979 -98.84757 34901 ft 525 kts 79°
2026-05-07 22:16 40.48132 -98.75294 34898 ft 525 kts 79°
2026-05-07 22:16 40.49285 -98.65811 34906 ft 526 kts 79°
2026-05-07 22:17 40.50422 -98.56318 34903 ft 526 kts 79°
2026-05-07 22:17 40.51557 -98.46813 34905 ft 527 kts 79°
2026-05-07 22:18 40.53245 -98.32542 34906 ft 527 kts 79°
2026-05-07 22:19 40.54350 -98.23074 34903 ft 528 kts 79°
2026-05-07 22:19 40.55456 -98.13533 34902 ft 528 kts 79°
2026-05-07 22:20 40.56558 -98.03976 34901 ft 529 kts 79°
2026-05-07 22:20 40.57653 -97.94416 34923 ft 529 kts 79°
2026-05-07 22:21 40.58784 -97.84861 34913 ft 528 kts 79°
2026-05-07 22:21 40.59967 -97.75327 34909 ft 528 kts 78°
2026-05-07 22:22 40.61141 -97.65792 34907 ft 528 kts 79°
2026-05-07 22:22 40.62284 -97.56244 34910 ft 528 kts 79°
2026-05-07 22:23 40.63419 -97.46690 34901 ft 529 kts 79°
2026-05-07 22:23 40.64549 -97.37120 34898 ft 529 kts 79°
2026-05-07 22:24 40.65666 -97.27544 34898 ft 529 kts 79°
2026-05-07 22:24 40.66778 -97.17959 34900 ft 530 kts 79°
2026-05-07 22:25 40.67890 -97.08365 34899 ft 530 kts 79°
2026-05-07 22:25 40.68995 -96.98766 34895 ft 530 kts 79°
2026-05-07 22:26 40.70022 -96.89148 34897 ft 530 kts 81°
2026-05-07 22:26 40.70912 -96.79502 34896 ft 529 kts 82°
2026-05-07 22:27 40.71777 -96.69886 34904 ft 528 kts 81°
2026-05-07 22:27 40.72677 -96.60282 34915 ft 528 kts 81°
2026-05-07 22:28 40.73584 -96.50692 34908 ft 527 kts 81°
2026-05-07 22:28 40.74481 -96.41096 34921 ft 527 kts 81°
2026-05-07 22:29 40.75358 -96.31501 34908 ft 527 kts 81°
2026-05-07 22:29 40.76230 -96.21906 34907 ft 527 kts 81°
2026-05-07 22:30 40.77094 -96.12309 34907 ft 527 kts 81°
2026-05-07 22:30 40.77949 -96.02708 34919 ft 526 kts 81°
2026-05-07 22:31 40.78794 -95.93125 34910 ft 525 kts 81°
2026-05-07 22:31 40.79695 -95.83562 34905 ft 525 kts 81°
2026-05-07 22:32 40.80626 -95.74013 34903 ft 524 kts 81°
2026-05-07 22:32 40.81540 -95.64466 34904 ft 524 kts 81°
2026-05-07 22:33 40.82420 -95.54979 34896 ft 524 kts 81°
2026-05-07 22:33 40.83301 -95.45423 34886 ft 524 kts 81°
2026-05-07 22:34 40.84175 -95.35868 34882 ft 524 kts 81°
2026-05-07 22:34 40.85041 -95.26319 34896 ft 523 kts 81°
2026-05-07 22:35 40.85905 -95.16780 34883 ft 522 kts 81°
2026-05-07 22:35 40.86753 -95.07253 34884 ft 522 kts 81°
2026-05-07 22:36 40.87590 -94.97724 34891 ft 522 kts 81°
2026-05-07 22:36 40.88422 -94.88194 34901 ft 522 kts 81°
2026-05-07 22:37 40.88529 -94.78596 34906 ft 524 kts 91°
2026-05-07 22:37 40.88199 -94.68977 34907 ft 524 kts 92°
2026-05-07 22:38 40.87866 -94.59353 34896 ft 524 kts 92°
2026-05-07 22:38 40.87531 -94.49727 34905 ft 524 kts 92°
2026-05-07 22:39 40.87188 -94.40194 34902 ft 523 kts 92°
2026-05-07 22:39 40.86829 -94.30606 34900 ft 522 kts 92°
2026-05-07 22:40 40.86472 -94.21029 34903 ft 522 kts 92°
2026-05-07 22:40 40.86111 -94.11448 34909 ft 522 kts 92°
2026-05-07 22:41 40.85731 -94.01803 34912 ft 522 kts 92°
2026-05-07 22:41 40.85343 -93.92226 34921 ft 522 kts 92°
2026-05-07 22:42 40.84953 -93.82713 34918 ft 522 kts 92°
2026-05-07 22:42 40.84551 -93.73117 34885 ft 524 kts 92°
2026-05-07 22:43 40.84144 -93.63480 34874 ft 527 kts 92°
2026-05-07 22:43 40.83732 -93.53806 34878 ft 529 kts 92°
2026-05-07 22:44 40.83533 -93.44088 34884 ft 530 kts 90°
2026-05-07 22:44 40.83486 -93.34344 34892 ft 531 kts 89°
2026-05-07 22:45 40.83392 -93.24594 34902 ft 531 kts 90°
2026-05-07 22:45 40.83248 -93.16480 34911 ft 532 kts 91°
2026-05-07 22:46 40.83049 -93.06717 34919 ft 532 kts 91°
2026-05-07 22:46 40.82867 -92.96960 34942 ft 531 kts 90°
2026-05-07 22:47 40.82689 -92.87209 34939 ft 531 kts 90°
2026-05-07 22:47 40.82495 -92.77472 34937 ft 530 kts 91°
2026-05-07 22:48 40.82292 -92.67747 34932 ft 530 kts 91°
2026-05-07 22:48 40.82087 -92.58016 34934 ft 531 kts 91°
2026-05-07 22:49 40.81864 -92.48276 34927 ft 531 kts 91°
2026-05-07 22:49 40.81628 -92.38522 34925 ft 532 kts 91°
2026-05-07 22:50 40.81391 -92.28770 34953 ft 532 kts 91°
2026-05-07 22:50 40.81151 -92.19011 34945 ft 532 kts 91°
2026-05-07 22:51 40.80907 -92.09241 34942 ft 532 kts 91°
2026-05-07 22:51 40.80642 -91.99475 34940 ft 533 kts 91°
2026-05-07 22:52 40.80448 -91.89702 34955 ft 533 kts 90°
2026-05-07 22:52 40.80329 -91.79920 34945 ft 533 kts 89°
2026-05-07 22:53 40.80187 -91.70192 34943 ft 534 kts 90°
2026-05-07 22:53 40.80004 -91.60387 34945 ft 534 kts 90°
2026-05-07 22:54 40.79801 -91.50581 34960 ft 535 kts 90°
2026-05-07 22:54 40.79602 -91.40760 34941 ft 536 kts 90°
2026-05-07 22:55 40.79404 -91.30919 34939 ft 537 kts 90°
2026-05-07 22:55 40.79202 -91.21069 34940 ft 537 kts 90°
2026-05-07 22:56 40.78982 -91.11213 34956 ft 538 kts 90°
2026-05-07 22:56 40.78751 -91.01339 34936 ft 539 kts 90°
2026-05-07 22:57 40.78507 -90.91443 34935 ft 540 kts 90°
2026-05-07 22:57 40.78257 -90.81534 34940 ft 540 kts 90°
2026-05-07 22:58 40.77999 -90.71620 34959 ft 541 kts 91°
2026-05-07 22:58 40.77732 -90.61688 34949 ft 542 kts 91°
2026-05-07 22:59 40.77459 -90.51805 34948 ft 543 kts 91°
2026-05-07 22:59 40.77186 -90.41845 34949 ft 543 kts 91°
2026-05-07 23:00 40.76895 -90.31878 34955 ft 545 kts 91°
2026-05-07 23:00 40.76599 -90.21879 34943 ft 546 kts 91°
2026-05-07 23:01 40.76291 -90.11861 34936 ft 547 kts 91°
2026-05-07 23:01 40.75970 -90.01826 34940 ft 548 kts 91°
2026-05-07 23:02 40.75649 -89.91780 34954 ft 549 kts 91°
2026-05-07 23:02 40.75308 -89.81718 34950 ft 550 kts 91°
2026-05-07 23:03 40.74941 -89.71643 34952 ft 550 kts 91°
2026-05-07 23:03 40.74580 -89.61560 34966 ft 551 kts 91°
2026-05-07 23:04 40.74216 -89.51468 34964 ft 551 kts 91°
2026-05-07 23:04 40.73843 -89.41381 34962 ft 551 kts 91°
2026-05-07 23:05 40.73385 -89.31292 34974 ft 551 kts 94°
2026-05-07 23:05 40.72674 -89.21225 34991 ft 552 kts 95°
2026-05-07 23:06 40.71868 -89.11153 34973 ft 553 kts 95°
2026-05-07 23:06 40.71117 -89.01065 34980 ft 553 kts 95°
2026-05-07 23:07 40.70414 -88.90955 34983 ft 554 kts 94°
2026-05-07 23:07 40.69704 -88.80842 35002 ft 555 kts 95°
2026-05-07 23:08 40.68951 -88.70709 34980 ft 556 kts 95°
2026-05-07 23:08 40.68179 -88.60561 34978 ft 557 kts 95°
2026-05-07 23:09 40.67411 -88.50401 34975 ft 558 kts 95°
2026-05-07 23:09 40.66641 -88.40293 34981 ft 559 kts 95°
2026-05-07 23:10 40.65857 -88.30040 34978 ft 560 kts 95°
2026-05-07 23:10 40.65063 -88.19908 34980 ft 560 kts 95°
2026-05-07 23:11 40.64256 -88.09707 34984 ft 560 kts 95°
2026-05-07 23:11 40.63442 -87.99496 34991 ft 561 kts 96°
2026-05-07 23:12 40.62612 -87.89276 34990 ft 562 kts 96°
2026-05-07 23:12 40.61775 -87.79052 34992 ft 562 kts 96°
2026-05-07 23:13 40.60936 -87.68820 35010 ft 562 kts 96°
2026-05-07 23:13 40.60088 -87.58585 34998 ft 563 kts 96°
2026-05-07 23:14 40.59214 -87.48344 34997 ft 564 kts 96°
2026-05-07 23:14 40.58331 -87.38088 34997 ft 564 kts 96°
2026-05-07 23:15 40.57447 -87.27835 35017 ft 565 kts 96°
2026-05-07 23:15 40.56571 -87.17572 35007 ft 565 kts 96°
2026-05-07 23:16 40.55674 -87.07294 35020 ft 566 kts 97°
2026-05-07 23:16 40.54807 -86.97011 35019 ft 566 kts 96°
2026-05-07 23:17 40.54043 -86.86713 35018 ft 567 kts 95°
2026-05-07 23:17 40.53279 -86.76393 34998 ft 567 kts 96°
2026-05-07 23:18 40.52481 -86.66076 35010 ft 568 kts 96°
2026-05-07 23:18 40.51654 -86.55762 35021 ft 568 kts 96°
2026-05-07 23:19 40.50814 -86.45443 35020 ft 568 kts 96°
2026-05-07 23:19 40.49979 -86.35116 35020 ft 569 kts 96°
2026-05-07 23:20 40.49134 -86.24781 35032 ft 569 kts 96°
2026-05-07 23:20 40.48277 -86.14451 35038 ft 569 kts 97°
2026-05-07 23:21 40.47403 -86.04126 35036 ft 569 kts 97°
2026-05-07 23:21 40.46530 -85.93792 35035 ft 569 kts 97°
2026-05-07 23:22 40.45651 -85.83462 35042 ft 569 kts 97°
2026-05-07 23:22 40.44758 -85.73130 35047 ft 569 kts 97°
2026-05-07 23:23 40.43854 -85.62803 35047 ft 569 kts 97°
2026-05-07 23:23 40.42939 -85.52480 35042 ft 570 kts 97°
2026-05-07 23:24 40.42017 -85.42148 35019 ft 570 kts 97°
2026-05-07 23:24 40.41081 -85.31832 35032 ft 569 kts 98°
2026-05-07 23:25 40.40135 -85.21521 35031 ft 569 kts 98°
2026-05-07 23:25 40.39180 -85.11228 35041 ft 568 kts 98°
2026-05-07 23:26 40.38226 -85.00937 35050 ft 568 kts 98°
2026-05-07 23:26 40.37270 -84.90720 35035 ft 568 kts 98°
2026-05-07 23:27 40.35797 -84.75287 35027 ft 569 kts 98°
2026-05-07 23:27 40.34808 -84.64999 35011 ft 568 kts 98°
2026-05-07 23:28 40.33815 -84.54716 35017 ft 569 kts 98°
2026-05-07 23:28 40.32804 -84.44427 35023 ft 569 kts 99°
2026-05-07 23:29 40.31785 -84.34136 35033 ft 569 kts 99°
2026-05-07 23:29 40.30759 -84.23847 35028 ft 570 kts 99°
2026-05-07 23:30 40.29731 -84.13548 35033 ft 570 kts 99°
2026-05-07 23:30 40.28690 -84.03257 35031 ft 571 kts 99°
2026-05-07 23:31 40.27714 -83.92936 35037 ft 571 kts 98°
2026-05-07 23:31 40.26826 -83.82596 35035 ft 572 kts 98°
2026-05-07 23:32 40.25935 -83.72238 35032 ft 573 kts 98°
2026-05-07 23:32 40.25003 -83.61883 35035 ft 573 kts 98°
2026-05-07 23:33 40.24202 -83.53271 35048 ft 573 kts 98°
2026-05-07 23:33 40.23233 -83.42907 35029 ft 574 kts 98°
2026-05-07 23:34 40.22262 -83.32527 35026 ft 575 kts 98°
2026-05-07 23:34 40.21284 -83.22150 35029 ft 575 kts 98°
2026-05-07 23:35 40.20300 -83.11776 35034 ft 575 kts 98°
2026-05-07 23:35 40.19304 -83.01389 35021 ft 576 kts 99°
2026-05-07 23:36 40.18297 -82.91002 35030 ft 576 kts 99°
2026-05-07 23:36 40.17285 -82.80684 35027 ft 576 kts 99°
2026-05-07 23:37 40.16251 -82.70291 35022 ft 577 kts 99°
2026-05-07 23:37 40.15077 -82.59924 35016 ft 575 kts 106°
2026-05-07 23:38 40.12549 -82.50101 35018 ft 569 kts 116°
2026-05-07 23:38 40.09677 -82.40467 35028 ft 569 kts 116°
2026-05-07 23:39 40.06800 -82.30827 35011 ft 570 kts 116°
2026-05-07 23:39 40.03931 -82.21171 35014 ft 571 kts 116°
2026-05-07 23:40 40.01039 -82.11521 35012 ft 571 kts 116°
2026-05-07 23:40 39.98139 -82.01878 35026 ft 571 kts 116°
2026-05-07 23:41 39.95236 -81.92232 34967 ft 572 kts 117°
2026-05-07 23:41 39.92322 -81.82574 34984 ft 573 kts 117°
2026-05-07 23:42 39.89392 -81.72925 34998 ft 573 kts 117°
2026-05-07 23:42 39.86445 -81.63284 35005 ft 573 kts 117°
2026-05-07 23:43 39.83493 -81.53647 35009 ft 573 kts 117°
2026-05-07 23:43 39.80540 -81.44019 35007 ft 573 kts 117°
2026-05-07 23:44 39.77585 -81.34397 35003 ft 573 kts 117°
2026-05-07 23:44 39.74606 -81.24792 34994 ft 573 kts 117°
2026-05-07 23:45 39.71626 -81.15192 34993 ft 573 kts 117°
2026-05-07 23:45 39.68646 -81.05600 34987 ft 573 kts 117°
2026-05-07 23:46 39.65647 -80.96002 34974 ft 575 kts 118°
2026-05-07 23:46 39.62655 -80.86441 34968 ft 575 kts 118°
2026-05-07 23:47 39.59636 -80.76841 34977 ft 575 kts 118°
2026-05-07 23:47 39.56606 -80.67261 34975 ft 574 kts 118°
2026-05-07 23:48 39.53573 -80.57686 34966 ft 574 kts 118°
2026-05-07 23:48 39.50533 -80.48124 34957 ft 574 kts 118°
2026-05-07 23:49 39.47488 -80.38584 34965 ft 573 kts 119°
2026-05-07 23:49 39.44438 -80.29057 34954 ft 573 kts 119°
2026-05-07 23:50 39.41392 -80.19533 34958 ft 573 kts 119°
2026-05-07 23:50 39.38334 -80.10015 34435 ft 573 kts 119°
2026-05-07 23:51 39.36806 -80.05287 34089 ft 566 kts 120°
2026-05-07 23:51 39.35289 -80.00598 33396 ft 568 kts 120°
2026-05-07 23:51 39.33764 -79.95894 32807 ft 566 kts 120°
2026-05-07 23:51 39.32243 -79.91209 32141 ft 565 kts 120°
2026-05-07 23:52 39.30729 -79.86529 31516 ft 566 kts 117°
2026-05-07 23:52 39.29566 -79.81660 31047 ft 569 kts 107°
2026-05-07 23:52 39.28935 -79.76635 30660 ft 566 kts 98°
2026-05-07 23:52 39.28547 -79.71616 30348 ft 558 kts 99°
2026-05-07 23:53 39.28160 -79.66678 30105 ft 548 kts 99°
2026-05-07 23:53 39.27774 -79.61836 29836 ft 538 kts 99°
2026-05-07 23:53 39.27389 -79.57068 29540 ft 530 kts 99°
2026-05-07 23:53 39.27008 -79.52360 29257 ft 526 kts 99°
2026-05-07 23:54 39.26630 -79.47681 28985 ft 522 kts 99°
2026-05-07 23:54 39.26255 -79.43038 28712 ft 519 kts 99°
2026-05-07 23:54 39.25880 -79.38418 28418 ft 516 kts 99°
2026-05-07 23:54 39.25503 -79.33833 28151 ft 513 kts 99°
2026-05-07 23:55 39.25126 -79.29271 27887 ft 510 kts 99°
2026-05-07 23:55 39.24748 -79.24735 27614 ft 507 kts 99°
2026-05-07 23:55 39.24371 -79.20226 27350 ft 505 kts 99°
2026-05-07 23:55 39.23989 -79.15732 26933 ft 503 kts 99°
2026-05-07 23:56 39.23602 -79.11251 26423 ft 500 kts 100°
2026-05-07 23:56 39.23223 -79.06881 26008 ft 495 kts 99°
2026-05-07 23:56 39.22845 -79.02501 25344 ft 490 kts 99°
2026-05-07 23:56 39.22469 -78.98140 24779 ft 488 kts 99°
2026-05-07 23:57 39.22084 -78.93770 24117 ft 490 kts 99°
2026-05-07 23:57 39.21682 -78.89425 23611 ft 488 kts 100°
2026-05-07 23:57 39.21264 -78.85091 23167 ft 481 kts 100°
2026-05-07 23:57 39.20844 -78.80848 22424 ft 475 kts 100°
2026-05-07 23:58 39.20423 -78.76648 21602 ft 472 kts 99°
2026-05-07 23:58 39.20011 -78.72503 21151 ft 460 kts 100°
2026-05-07 23:58 39.19610 -78.68435 20865 ft 456 kts 100°
2026-05-07 23:58 39.19212 -78.64389 20385 ft 454 kts 99°
2026-05-07 23:59 39.18815 -78.60374 19879 ft 449 kts 100°
2026-05-07 23:59 39.18420 -78.56402 19383 ft 445 kts 100°
2026-05-07 23:59 39.18025 -78.52460 18887 ft 442 kts 100°
2026-05-07 23:59 39.17635 -78.48556 18398 ft 436 kts 100°
2026-05-08 00:00 39.17250 -78.44711 17882 ft 430 kts 100°
2026-05-08 00:00 39.16870 -78.40913 17469 ft 425 kts 100°
2026-05-08 00:00 39.16457 -78.37162 17035 ft 420 kts 104°
2026-05-08 00:00 39.15696 -78.33568 16630 ft 412 kts 112°
2026-05-08 00:01 39.14829 -78.30074 16241 ft 408 kts 112°
2026-05-08 00:01 39.13969 -78.26607 15852 ft 404 kts 112°
2026-05-08 00:01 39.13117 -78.23176 15468 ft 400 kts 112°
2026-05-08 00:01 39.12273 -78.19781 15085 ft 396 kts 111°
2026-05-08 00:02 39.11433 -78.16419 14701 ft 393 kts 111°
2026-05-08 00:02 39.10610 -78.13131 14347 ft 389 kts 111°
2026-05-08 00:02 39.09772 -78.09788 13964 ft 385 kts 112°
2026-05-08 00:02 39.08955 -78.06571 13595 ft 381 kts 112°
2026-05-08 00:03 39.08117 -78.03303 13205 ft 378 kts 112°
2026-05-08 00:03 39.07310 -78.00148 12996 ft 362 kts 111°
2026-05-08 00:03 39.06548 -77.97157 12799 ft 344 kts 112°
2026-05-08 00:03 39.05819 -77.94311 12346 ft 337 kts 112°
2026-05-08 00:04 39.05086 -77.91463 11869 ft 334 kts 111°
2026-05-08 00:04 39.04358 -77.88644 11752 ft 332 kts 111°
2026-05-08 00:04 39.03630 -77.85829 11606 ft 332 kts 111°
2026-05-08 00:04 39.02904 -77.83013 11328 ft 331 kts 111°
2026-05-08 00:05 39.02184 -77.80226 11054 ft 327 kts 110°
2026-05-08 00:05 39.01473 -77.77467 10765 ft 323 kts 110°
2026-05-08 00:05 39.00769 -77.74733 10470 ft 320 kts 110°
2026-05-08 00:05 39.00069 -77.72033 10199 ft 317 kts 110°
2026-05-08 00:06 38.99375 -77.69357 9915 ft 314 kts 109°
2026-05-08 00:06 38.98687 -77.66699 9401 ft 317 kts 108°
2026-05-08 00:06 38.97988 -77.64041 9202 ft 310 kts 110°
2026-05-08 00:06 38.97248 -77.61455 9029 ft 307 kts 111°
2026-05-08 00:07 38.96486 -77.58905 8773 ft 305 kts 112°
2026-05-08 00:07 38.95714 -77.56354 8494 ft 308 kts 111°
2026-05-08 00:07 38.95050 -77.53752 8256 ft 306 kts 99°
2026-05-08 00:07 38.94925 -77.51086 8096 ft 294 kts 82°
2026-05-08 00:08 38.95338 -77.48570 7845 ft 283 kts 66°
2026-05-08 00:08 38.96091 -77.46262 7384 ft 278 kts 63°
2026-05-08 00:08 38.96854 -77.44000 6956 ft 274 kts 63°
2026-05-08 00:08 38.97603 -77.41769 6534 ft 269 kts 63°
2026-05-08 00:09 38.98338 -77.39572 6047 ft 267 kts 63°
2026-05-08 00:09 38.99066 -77.37399 5639 ft 262 kts 63°
2026-05-08 00:09 38.99785 -77.35247 5274 ft 262 kts 64°
2026-05-08 00:09 39.00501 -77.33100 4908 ft 258 kts 64°
2026-05-08 00:10 39.01198 -77.31017 4537 ft 248 kts 64°
2026-05-08 00:10 39.01859 -77.29049 4211 ft 232 kts 64°
2026-05-08 00:10 39.02441 -77.27199 3875 ft 224 kts 72°
2026-05-08 00:10 39.02631 -77.25216 3567 ft 224 kts 91°
2026-05-08 00:11 39.02304 -77.23266 3237 ft 224 kts 112°
2026-05-08 00:11 39.01494 -77.21548 3082 ft 222 kts 131°
2026-05-08 00:11 39.00401 -77.20177 3017 ft 223 kts 137°
2026-05-08 00:11 38.99271 -77.18810 3005 ft 223 kts 136°
2026-05-08 00:12 38.98156 -77.17442 2820 ft 216 kts 136°
2026-05-08 00:12 38.97132 -77.16144 2779 ft 193 kts 136°
2026-05-08 00:12 38.96227 -77.14988 2626 ft 179 kts 136°
2026-05-08 00:12 38.95335 -77.13941 2465 ft 163 kts 140°
2026-05-08 00:13 38.94501 -77.13022 2259 ft 157 kts 141°
2026-05-08 00:13 38.93678 -77.12125 2067 ft 152 kts 143°
2026-05-08 00:13 38.92815 -77.11381 1887 ft 148 kts 156°
2026-05-08 00:13 38.91906 -77.10777 1716 ft 146 kts 156°
2026-05-08 00:14 38.91061 -77.10051 1546 ft 148 kts 143°
2026-05-08 00:14 38.90419 -77.09009 1288 ft 151 kts 119°
2026-05-08 00:14 38.90155 -77.07696 1111 ft 153 kts 103°
2026-05-08 00:14 38.89783 -77.06460 974 ft 147 kts 131°
2026-05-08 00:15 38.89041 -77.05621 814 ft 142 kts 146°
2026-05-08 00:15 38.88262 -77.04850 595 ft 140 kts 146°
2026-05-08 00:15 38.87453 -77.04207 359 ft 135 kts 160°
2026-05-08 00:15 38.86551 -77.03928 140 ft 134 kts 174°
2026-05-08 00:16 38.85637 -77.03823 32 ft 124 kts 176°
2026-05-08 00:16 38.84926 -77.03753 24 ft 64 kts 175°
2026-05-08 00:16 38.84662 -77.03726 24 ft 32 kts 175°
2026-05-08 00:16 38.84457 -77.03707 24 ft 24 kts 178°
2026-05-08 00:17 38.84392 -77.03765 25 ft 10 kts 263°
2026-05-08 00:17 38.84415 -77.03841 26 ft 10 kts 338°
2026-05-08 00:17 38.84492 -77.03851 25 ft 13 kts 355°
2026-05-08 00:17 38.84609 -77.03862 25 ft 20 kts 355°
2026-05-08 00:18 38.84755 -77.03877 24 ft 22 kts 355°
2026-05-08 00:18 38.84911 -77.03892 24 ft 23 kts 355°
2026-05-08 00:18 38.85074 -77.03909 24 ft 24 kts 355°
2026-05-08 00:18 38.85234 -77.03925 26 ft 18 kts 355°
2026-05-08 00:19 38.85327 -77.03937 24 ft 10 kts 345°
2026-05-08 00:19 38.85340 -77.04012 26 ft 10 kts 255°
2026-05-08 00:19 38.85338 -77.04082 24 ft 6 kts 318°
2026-05-08 00:19 38.85364 -77.04105 24 ft 1 kts 327°
2026-05-08 00:20 38.85369 -77.04109 24 ft 0 kts 326°